Terminal Aerodrome Forecast
Issued by NWS

Home | Current Version | Previous Version | Text Only | Print | Product List | Glossary On
Versions: 1 2 3 4 5 6 7 8 9 10 11 12 13 14 15 16 17 18 19 20 21 22 23 24 25 26 27 28 29
002
FTUS41 KCAR 220520
TAFFVE
TAF
KFVE 220520Z 2206/2306 17007KT P6SM SCT200
     FM221400 18006KT P6SM VCSH OVC040
     FM221800 18006KT 3SM -RA BR OVC015
     FM222100 36008KT 2SM -RASN BR OVC006
     FM230000 36012KT 3/4SM -SN BR OVC004=

USA.gov is the U.S. government's official web portal to all federal, state and local government web resources and services.